Latest Coastal Weather Observations for Flinders Reef

IDQ60701

Issued at 10:21 am EST Monday 23 January 2017 (issued every 10 minutes, with the page automatically refreshed every 10 minutes)

About coastal observations | Map of coastal stations | Coastal observations for QLD | Marine services | Other Formats
Station Details ID: 200783 Name: FLINDERS REEF Lat: -17.72 Lon: 148.45 Height: 2.6 m
Data from the previous 72 hours. | See also: Recent months at Flinders Reef
Date/Time
EST
Temp
°C
Wind Pressure Rain since
9am
mm
Weather Cloud Vis
km
Sea
Height
m
Swell
Dir  Spd
kts
Gust
kts
hPa Trend Height
m
Period
s
Dir
23/10:00am 29.2 SE 11 13 1011.3 - - - - - - - - -
23/09:30am 28.9 ESE 11 13 1011.3 - - - - - - - - -
23/09:24am 28.9 ESE 11 - 1011.2 - - - - - - - - -
23/09:00am 28.9 E 11 13 1011.2 - - - - - - - - -
23/08:30am 29.2 E 10 11 1010.9 - - - - - - - - -
23/08:24am 29.4 E 10 - 1010.8 - - - - - - - - -
23/08:00am 29.2 E 10 12 1010.8 - - - - - - - - -
23/07:30am 29.0 E 10 11 1010.8 - - - - - - - - -
23/07:24am 29.1 ESE 10 - 1010.6 - - - - - - - - -
23/07:00am 29.0 E 10 13 1010.5 - - - - - - - - -
23/06:30am 28.7 E 10 13 1010.2 - - - - - - - - -
23/06:24am 28.5 ESE 10 - 1010.0 - - - - - - - - -
23/06:00am 28.6 E 11 13 1009.9 - - - - - - - - -
23/05:30am 28.4 E 10 13 1009.7 - - - - - - - - -
23/05:24am 28.4 E 10 - 1009.5 - - - - - - - - -
23/05:00am 28.3 E 11 13 1009.2 - - - - - - - - -
23/04:30am 28.2 E 10 12 1009.0 - - - - - - - - -
23/04:24am 28.3 E 10 - 1008.9 - - - - - - - - -
23/04:00am 28.2 E 11 13 1008.9 - - - - - - - - -
23/03:30am 28.1 E 12 14 1009.0 - - - - - - - - -
23/03:24am 28.2 E 12 - 1008.9 - - - - - - - - -
23/03:00am 28.3 E 13 15 1009.2 - - - - - - - - -
23/02:30am 28.4 E 14 17 1009.3 - - - - - - - - -
23/02:24am 28.4 E 14 - 1009.3 - - - - - - - - -
23/02:00am 28.4 E 13 15 1009.6 - - - - - - - - -
23/01:30am 28.5 E 13 15 1010.0 - - - - - - - - -
23/01:24am 28.6 E 13 - 1010.0 - - - - - - - - -
23/01:00am 28.5 E 13 16 1010.2 - - - - - - - - -
23/12:30am 28.6 E 13 15 1010.5 - - - - - - - - -
23/12:24am 28.6 E 13 - 1010.4 - - - - - - - - -
23/12:00am 28.6 E 12 15 1010.7 - - - - - - - - -
 
Date/Time
EST
Temp
°C
Wind Pressure Rain since
9am
mm
Weather Cloud Vis
km
Sea
Height
m
Swell
Dir  Spd
kts
Gust
kts
hPa Trend Height
m
Period
s
Dir
22/11:30pm 28.6 E 13 15 1010.8 - - - - - - - - -
22/11:24pm 28.6 E 13 - 1010.8 - - - - - - - - -
22/11:00pm 28.7 E 14 15 1011.1 - - - - - - - - -
22/10:30pm 28.9 E 13 15 1011.3 - - - - - - - - -
22/10:24pm 28.8 E 13 - 1011.2 - - - - - - - - -
22/10:00pm 28.8 E 14 16 1011.2 - - - - - - - - -
22/09:30pm 28.8 E 13 15 1011.1 - - - - - - - - -
22/09:24pm 29.0 ESE 13 - 1010.9 - - - - - - - - -
22/09:00pm 28.9 ESE 15 16 1010.7 - - - - - - - - -
22/08:30pm 29.0 E 16 18 1010.5 - - - - - - - - -
22/08:24pm 29.0 E 16 - 1010.3 - - - - - - - - -
22/08:00pm 29.2 E 15 17 1010.2 - - - - - - - - -
22/07:30pm 29.1 E 15 17 1009.9 - - - - - - - - -
22/07:24pm 29.0 E 15 - 1009.7 - - - - - - - - -
22/07:00pm 29.1 E 15 17 1009.6 - - - - - - - - -
22/06:30pm 29.3 E 14 16 1009.4 - - - - - - - - -
22/06:24pm 29.3 E 14 - 1009.3 - - - - - - - - -
22/06:00pm 29.3 E 14 16 1009.1 - - - - - - - - -
22/05:30pm 29.3 E 13 14 1008.8 - - - - - - - - -
22/05:24pm 29.4 E 13 - 1008.6 - - - - - - - - -
22/05:00pm 29.5 SE 12 14 1008.7 - - - - - - - - -
22/04:30pm 29.5 ESE 10 12 1008.6 - - - - - - - - -
22/04:24pm 29.5 ESE 10 - 1008.5 - - - - - - - - -
22/04:00pm 29.5 ESE 10 11 1008.6 - - - - - - - - -
22/03:30pm 29.6 ESE 10 11 1008.6 - - - - - - - - -
22/03:24pm 29.5 E 10 - 1008.6 - - - - - - - - -
22/03:00pm 29.5 E 9 11 1009.0 - - - - - - - - -
22/02:30pm 29.5 E 8 9 1009.3 - - - - - - - - -
22/02:24pm 29.6 E 8 - 1009.2 - - - - - - - - -
22/02:00pm 29.9 E 6 7 1009.4 - - - - - - - - -
22/01:30pm 30.8 ENE 5 6 1009.6 - - - - - - - - -
22/01:24pm 30.6 ENE 5 - 1009.6 - - - - - - - - -
22/01:00pm 31.0 ENE 4 6 1009.8 - - - - - - - - -
22/12:30pm 30.1 ENE 5 6 1009.9 - - - - - - - - -
22/12:24pm 30.6 ENE 5 - 1009.8 - - - - - - - - -
22/12:00pm 30.4 E 6 7 1010.0 - - - - - - - - -
22/11:30am 30.0 E 6 7 1010.3 - - - - - - - - -
22/11:24am 29.8 E 7 - 1010.2 - - - - - - - - -
22/11:00am 30.3 E 7 8 1010.3 - - - - - - - - -
22/10:30am 29.3 E 7 9 1010.3 - - - - - - - - -
22/10:24am 29.8 E 6 - 1010.2 - - - - - - - - -
22/10:00am 29.4 E 5 6 1010.4 - - - - - - - - -
22/09:30am 29.8 E 6 7 1010.3 - - - - - - - - -
22/09:24am 29.6 E 5 - 1010.2 - - - - - - - - -
22/09:00am 30.1 E 5 7 1010.1 - - - - - - - - -
22/08:30am 29.4 E 6 7 1010.2 - - - - - - - - -
22/08:24am 29.2 E 6 - 1010.0 - - - - - - - - -
22/08:00am 29.3 E 4 5 1009.9 - - - - - - - - -
22/07:30am 29.6 E 5 6 1009.8 - - - - - - - - -
22/07:24am 29.6 E 5 - 1009.7 - - - - - - - - -
22/07:00am 29.0 E 5 6 1009.6 - - - - - - - - -
22/06:30am 28.7 E 4 5 1009.2 - - - - - - - - -
22/06:24am 28.6 E 4 - 1009.1 - - - - - - - - -
22/06:00am 28.1 CALM 0 2 1008.9 - - - - - - - - -
22/05:30am 28.0 CALM 0 1 1008.6 - - - - - - - - -
22/05:24am 28.1 CALM 0 - 1008.4 - - - - - - - - -
22/05:00am 28.0 CALM 0 2 1008.3 - - - - - - - - -
22/04:30am 28.0 CALM 0 4 1007.9 - - - - - - - - -
22/04:24am 27.9 CALM 0 - 1007.8 - - - - - - - - -
22/04:00am 27.9 CALM 0 3 1007.8 - - - - - - - - -
22/03:30am 28.0 CALM 0 1 1007.9 - - - - - - - - -
22/03:24am 28.1 CALM 0 - 1007.6 - - - - - - - - -
22/03:00am 28.0 CALM 0 2 1008.0 - - - - - - - - -
22/02:30am 27.9 CALM 0 4 1008.2 - - - - - - - - -
22/02:24am 27.9 CALM 0 - 1008.2 - - - - - - - - -
22/02:00am 27.8 CALM 0 6 1008.7 - - - - - - - - -
22/01:30am 27.9 CALM 0 2 1008.9 - - - - - - - - -
22/01:24am 28.1 CALM 0 - 1008.9 - - - - - - - - -
22/01:00am 27.9 CALM 0 2 1009.3 - - - - - - - - -
22/12:30am 27.6 CALM 0 3 1009.5 - - - - - - - - -
22/12:24am 27.7 CALM 0 - 1009.5 - - - - - - - - -
22/12:00am 28.5 CALM 0 1 1009.8 - - - - - - - - -
 
Date/Time
EST
Temp
°C
Wind Pressure Rain since
9am
mm
Weather Cloud Vis
km
Sea
Height
m
Swell
Dir  Spd
kts
Gust
kts
hPa Trend Height
m
Period
s
Dir
21/11:30pm 28.5 CALM 0 1 1010.0 - - - - - - - - -
21/11:24pm 28.5 CALM 0 - 1009.9 - - - - - - - - -
21/11:00pm 28.6 CALM 0 2 1010.2 - - - - - - - - -
21/10:30pm 28.8 CALM 0 1 1010.0 - - - - - - - - -
21/10:24pm 28.8 CALM 0 - 1009.9 - - - - - - - - -
21/10:00pm 28.7 CALM 0 3 1009.8 - - - - - - - - -
21/09:30pm 28.8 CALM 0 2 1009.2 - - - - - - - - -
21/09:24pm 28.8 CALM 0 - 1009.0 - - - - - - - - -
21/09:00pm 28.7 CALM 0 1 1008.7 - - - - - - - - -
21/08:30pm 28.7 CALM 0 0 1008.5 - - - - - - - - -
21/08:24pm 28.6 CALM 0 - 1008.4 - - - - - - - - -
21/08:00pm 28.7 CALM 0 1 1008.2 - - - - - - - - -
21/07:30pm 28.6 NNE 1 4 1008.0 - - - - - - - - -
21/07:24pm 28.8 N 1 - 1007.8 - - - - - - - - -
21/07:00pm 28.8 CALM 0 3 1007.4 - - - - - - - - -
21/06:30pm 29.9 CALM 0 3 1007.2 - - - - - - - - -
21/06:24pm 30.6 CALM 0 - 1007.1 - - - - - - - - -
21/06:00pm 30.6 CALM 0 4 1007.1 - - - - - - - - -
21/05:30pm 30.2 CALM 0 2 1006.8 - - - - - - - - -
21/05:24pm 30.0 CALM 0 - 1006.6 - - - - - - - - -
21/05:00pm 29.8 SW 1 4 1006.7 - - - - - - - - -
21/04:30pm 29.4 SW 3 5 1006.7 - - - - - - - - -
21/04:24pm 29.5 SW 3 - 1006.6 - - - - - - - - -
21/04:00pm 29.3 SW 4 5 1006.8 - - - - - - - - -
21/03:30pm 29.3 SW 3 4 1006.8 - - - - - - - - -
21/03:24pm 29.0 SW 4 - 1006.8 - - - - - - - - -
21/03:00pm 28.7 SW 6 7 1007.0 - - - - - - - - -
21/02:30pm 29.3 SW 5 7 1007.5 - - - - - - - - -
21/02:24pm 29.0 SW 5 - 1007.5 - - - - - - - - -
21/02:00pm 29.1 SSW 5 6 1007.8 - - - - - - - - -
21/01:30pm 28.9 SSW 4 6 1008.2 - - - - - - - - -
21/01:24pm 29.0 SW 4 - 1008.1 - - - - - - - - -
21/01:00pm 28.8 SW 6 7 1008.6 - - - - - - - - -
21/12:30pm 28.8 SW 7 9 1008.8 - - - - - - - - -
21/12:24pm 28.7 SW 7 - 1008.8 - - - - - - - - -
21/12:00pm 28.7 WSW 6 7 1009.1 - - - - - - - - -
21/11:30am 28.8 WSW 5 7 1009.3 - - - - - - - - -
21/11:24am 28.6 WSW 6 - 1009.3 - - - - - - - - -
21/11:00am 28.6 WSW 8 9 1009.7 - - - - - - - - -
21/10:30am 28.7 SW 6 8 1009.9 - - - - - - - - -
21/10:24am 28.6 WSW 6 - 1010.0 - - - - - - - - -
21/10:00am 28.7 WSW 6 7 1010.0 - - - - - - - - -
21/09:30am 28.7 WSW 6 7 1010.2 - - - - - - - - -
21/09:24am 28.7 WSW 6 - 1010.0 - - - - - - - - -
21/09:00am 28.6 WSW 6 8 1010.0 - - - - - - - - -
21/08:30am 28.6 WSW 6 6 1009.9 - - - - - - - - -
21/08:24am 28.4 WSW 6 - 1009.7 - - - - - - - - -
21/08:00am 28.5 WSW 5 6 1009.8 - - - - - - - - -
21/07:30am 28.4 S 5 6 1009.6 - - - - - - - - -
21/07:24am 28.3 S 5 - 1009.4 - - - - - - - - -
21/07:00am 28.4 S 5 6 1009.4 - - - - - - - - -
21/06:30am 28.2 SE 1 3 1009.1 - - - - - - - - -
21/06:24am 28.1 SE 1 - 1008.9 - - - - - - - - -
21/06:00am 28.1 CALM 0 3 1008.7 - - - - - - - - -
21/05:30am 28.1 CALM 0 4 1008.3 - - - - - - - - -
21/05:24am 27.9 CALM 0 - 1008.1 - - - - - - - - -
21/05:00am 27.9 CALM 0 2 1008.0 - - - - - - - - -
21/04:30am 27.9 CALM 0 4 1007.7 - - - - - - - - -
21/04:24am 27.9 CALM 0 - 1007.6 - - - - - - - - -
21/04:00am 28.1 CALM 0 2 1007.7 - - - - - - - - -
21/03:30am 28.0 NNE 1 5 1007.5 - - - - - - - - -
21/03:24am 27.7 CALM 0 - 1007.4 - - - - - - - - -
21/03:00am 27.9 CALM 0 2 1007.5 - - - - - - - - -
21/02:30am 27.9 CALM 0 2 1007.4 - - - - - - - - -
21/02:24am 27.9 CALM 0 - 1007.3 - - - - - - - - -
21/02:00am 27.9 CALM 0 2 1007.6 - - - - - - - - -
21/01:30am 27.9 CALM 0 0 1007.8 - - - - - - - - -
21/01:24am 28.0 CALM 0 - 1007.8 - - - - - - - - -
21/01:00am 28.0 CALM 0 0 1008.1 - - - - - - - - -
21/12:30am 27.9 CALM 0 1 1008.1 - - - - - - - - -
21/12:24am 28.0 CALM 0 - 1007.8 - - - - - - - - -
21/12:00am 28.0 CALM 0 2 1007.8 - - - - - - - - -
 
Date/Time
EST
Temp
°C
Wind Pressure Rain since
9am
mm
Weather Cloud Vis
km
Sea
Height
m
Swell
Dir  Spd
kts
Gust
kts
hPa Trend Height
m
Period
s
Dir
20/11:30pm 28.1 CALM 0 1 1008.3 - - - - - - - - -
20/11:24pm 28.2 CALM 0 - 1008.3 - - - - - - - - -
20/11:00pm 28.2 CALM 0 0 1008.6 - - - - - - - - -
20/10:30pm 28.3 CALM 0 3 1008.5 - - - - - - - - -
20/10:24pm 28.2 CALM 0 - 1008.4 - - - - - - - - -
20/10:00pm 28.3 CALM 0 2 1008.7 - - - - - - - - -
20/09:30pm 28.2 CALM 0 1 1008.6 - - - - - - - - -
20/09:24pm 28.2 CALM 0 - 1008.5 - - - - - - - - -
20/09:00pm 28.2 CALM 0 0 1008.5 - - - - - - - - -
20/08:30pm 28.4 CALM 0 2 1008.2 - - - - - - - - -
20/08:24pm 28.3 CALM 0 - 1008.0 - - - - - - - - -
20/08:00pm 28.5 CALM 0 2 1008.0 - - - - - - - - -
20/07:30pm 28.4 E 4 6 1007.8 - - - - - - - - -
20/07:24pm 28.4 ESE 5 - 1007.7 - - - - - - - - -
20/07:00pm 28.4 ESE 3 5 1007.6 - - - - - - - - -
20/06:30pm 28.6 SSE 5 7 1007.3 - - - - - - - - -
20/06:24pm 28.6 SSE 6 - 1007.1 - - - - - - - - -
20/06:00pm 28.6 S 6 7 1007.0 - - - - - - - - -
20/05:30pm 28.6 S 5 6 1006.7 - - - - - - - - -
20/05:24pm 28.7 S 4 - 1006.6 - - - - - - - - -
20/05:00pm 28.8 S 4 5 1006.6 - - - - - - - - -
20/04:30pm 28.5 S 5 6 1006.4 - - - - - - - - -
20/04:24pm 28.4 S 5 - 1006.3 - - - - - - - - -
20/04:00pm 28.1 SSW 5 7 1006.6 - - - - - - - - -
20/03:30pm 28.2 S 8 10 1006.9 - - - - - - - - -
20/03:24pm 28.2 S 8 - 1006.9 - - - - - - - - -
20/03:00pm 28.3 S 8 11 1007.3 - - - - - - - - -
20/02:30pm 28.3 S 6 8 1007.4 - - - - - - - - -
20/02:24pm 28.3 S 6 - 1007.3 - - - - - - - - -
20/02:00pm 28.3 S 6 8 1007.7 - - - - - - - - -
20/01:30pm 28.2 S 7 8 1008.0 - - - - - - - - -
20/01:24pm 28.1 S 6 - 1007.9 - - - - - - - - -
20/01:00pm 28.1 SSE 7 9 1008.3 - - - - - - - - -
20/12:30pm 27.9 S 8 10 1008.6 - - - - - - - - -
20/12:24pm 28.2 S 8 - 1008.5 - - - - - - - - -
20/12:00pm 28.1 S 10 12 1008.8 - - - - - - - - -
20/11:30am 28.6 N 6 7 1009.1 - - - - - - - - -
20/11:24am 28.8 N 5 - 1009.1 - - - - - - - - -
20/11:00am 28.8 N 5 6 1009.5 - - - - - - - - -
20/10:30am 28.7 N 4 7 1009.7 - - - - - - - - -
20/10:24am 28.6 N 5 - 1009.6 - - - - - - - - -

Other Formats:

Comma delimited format used in spreadsheet applications
http://www.bom.gov.au/fwo/IDQ60701/IDQ60701.94290.axf

JavaScript Object Notation format (JSON) in row-major order
http://www.bom.gov.au/fwo/IDQ60701/IDQ60701.94290.json